Regional Weather Roundup
Issued by NWS Cleveland, OH

Home | Current Version | Previous Version | Text Only | Print | Product List | Glossary Off
Versions: 1 2 3 4 5 6 7 8 9 10 11 12 13 14 15 16 17 18 19 20 21 22 23 24 25 26 27 28 29 30 31 32 33 34 35 36 37 38 39 40 41 42 43 44 45 46 47 48 49 50

000
ASUS41 KCLE 231210
RWRCLE
OHIO REGIONAL WEATHER ROUNDUP
NATIONAL WEATHER SERVICE WILMINGTON, OH
800 AM EDT WED APR 23 2014

NOTE: "FAIR" INDICATES FEW OR NO CLOUDS BELOW 12,000 FEET WITH NO
SIGNIFICANT WEATHER AND/OR OBSTRUCTIONS TO VISIBILITY.

OHZ001>008-015>018-024>027-034-035-043-044-231300-
   NORTHWEST OHIO

CITY           SKY/WX    TMP DP  RH WIND       PRES   REMARKS
DEFIANCE       SUNNY     37  28  70 N7        30.08R
FINDLAY        SUNNY     36  29  75 N12       30.05R
TOLEDO EXPRESS PTSUNNY   37  28  70 N15       30.06R
TOLEDO METCALF CLOUDY    39  28  64 NW9       30.07R
LIMA           SUNNY     36  29  75 N10       30.06R
$$

OHZ009>014-019>023-028>033-038-089-231300-
   NORTHEAST OHIO

CITY           SKY/WX    TMP DP  RH WIND       PRES   REMARKS
CLE-HOPKINS    CLOUDY    41  30  65 NW17      30.04R
CLE-LAKEFRONT  CLOUDY    39  33  79 NW16      30.00R
CUY CO. ARPT   CLOUDY    37  32  81 N10G18    30.00R
LORAIN-ELYRIA  CLOUDY    42  31  64 N10       30.03R
ASHTABULA      CLOUDY    36  30  79 NW13      29.97R
AKRON-CANTON   CLOUDY    38  30  73 NW10      29.97R
WOOSTER        CLOUDY    39  30  70 N17       30.00R
MANSFIELD      CLOUDY    37  31  78 NW9       30.01R
YOUNGSTOWN     CLOUDY    36  31  82 NW17      29.94R
$$

OHZ042-051>053-060>062-070>072-077>081-231300-
  SOUTHWEST OHIO

CITY           SKY/WX    TMP DP  RH WIND       PRES   REMARKS
CINC-COVINGTON SUNNY     40  31  70 N9        30.06R
CINC-LUNKEN    SUNNY     41  30  65 N9        30.09R
HAMILTON       SUNNY     40  32  73 NW6       30.08R
DAYTON         SUNNY     38  30  73 N8        30.07R
WRIGHT-PAT AFB SUNNY     38  29  69 N8        30.06R
DAYTON GENERAL SUNNY     38  30  73 N12       30.05R
WILMINGTON     SUNNY     39  29  67 N9        30.04R
$$

OHZ036-037-039>041-045>050-054>059-063>069-073>076-082>088-231300-
  CENTRAL AND SOUTHEAST OHIO

CITY           SKY/WX    TMP DP  RH WIND       PRES   REMARKS
COLUMBUS       SUNNY     41  29  62 N14       30.03R
OSU AIRPORT    SUNNY     38  29  70 N14       30.04R
BOLTON FIELD   SUNNY     37  30  75 N12       30.04R
RICKENBACK AFB SUNNY     42  28  59 N15       30.03R
NEWARK         CLOUDY    40  30  67 NW6       30.02R
MARION         SUNNY     37  29  72 N15       30.04R
LANCASTER      SUNNY     41  30  65 NW10      30.02R
ZANESVILLE     CLOUDY    42  31  64 NW8       29.99R
NEW PHILLY     CLOUDY    41  30  65 NW9       29.99R
$$



USA.gov is the U.S. government's official web portal to all federal, state and local government web resources and services.